[[{"header":{"parameterUnit":"m.s-1","parameterCategory":1,"la1":30.2992,"la2":30.254,"lo1":-89.0895,"lo2":-89.0443,"dy":0.0025,"dx":0.0025,"nx":19,"ny":19,"refTime":"2026-05-22T09:00:00:Z","depth":0,"parameterNumber":2,"parameterNumberName":"U-component_of_WINDS"},"data":[0,0,0,-1.2581,-1.258,-1.255,-1.255,-1.2488,-1.2488,0,0,0,0,0,0,0,0,0,0,0,-1.258,-1.258,-1.2581,-1.258,-1.255,-1.255,-1.2489,-1.2488,0,0,0,0,0,0,0,0,0,0,0,-1.2581,-1.258,-1.2579,-1.258,-1.255,-1.255,-1.2489,-1.2519,0,0,0,0,0,0,0,0,0,0,-1.2552,-1.2543,-1.258,-1.2579,-1.258,-1.255,-1.255,-1.2521,-1.2517,-1.2494,0,-1.2474,0,-1.248,-1.2482,-1.2482,0,0,0,-1.2587,-1.2546,-1.2546,-1.2579,-1.2579,-1.255,-1.2565,-1.2519,-1.2515,-1.2489,-1.2473,-1.2471,-1.2479,-1.2482,-1.2482,-1.2332,-1.2331,0,0,-1.2589,-1.2569,-1.2549,-1.2543,-1.255,-1.2566,-1.2564,-1.2517,-1.2497,-1.2473,-1.247,-1.2478,-1.2481,-1.2481,-1.2333,-1.2332,0,0,0,-1.2589,-1.257,-1.2572,-1.2545,-1.2542,-1.2565,-1.2563,-1.2499,-1.2502,-1.2469,-1.2477,-1.2481,-1.248,-1.2335,-1.2333,-1.2265,0,0,0,-1.259,-1.257,-1.2573,-1.256,-1.2542,-1.2521,-1.2546,-1.2505,-1.25,-1.2477,-1.2481,-1.2479,-1.2336,-1.2334,-1.2269,-1.2236,0,0,0,-1.2585,-1.257,-1.2562,-1.2559,-1.2546,-1.2522,-1.2522,-1.2504,-1.2504,-1.2482,-1.2479,-1.2337,-1.2334,-1.2273,-1.2242,-1.219,0,0,0,-1.2574,-1.2501,-1.2561,-1.2482,-1.2546,-1.2481,-1.2523,-1.2475,-1.2448,-1.2481,-1.2336,-1.2333,-1.2274,-1.2246,-1.2194,-1.2143,-1.2121,0,0,-1.2471,-1.2488,-1.2443,-1.2495,-1.2415,-1.2487,-1.2395,-1.2388,-1.2403,-1.2354,-1.2351,-1.2268,-1.2243,-1.2191,-1.1999,-1.1981,0,0,0,-1.2404,-1.2371,-1.2354,-1.2329,-1.2322,-1.2313,-1.2323,-1.2319,-1.2279,-1.2375,-1.2236,-1.2221,-1.2192,-1.2168,-1.2153,-1.2128,-1.2322,-1.2322,-1.2322,-1.223,-1.2254,-1.218,-1.2199,-1.2173,-1.2183,-1.2163,-1.216,-1.219,-1.2156,-1.2143,-1.2023,-1.1995,-1.1984,-1.1958,-1.2117,-1.2117,-1.2117,-1.2117,-1.2081,-1.2039,-1.208,-1.2024,-1.2048,-1.2,-1.2004,-1.2027,-1.1983,-1.2037,-1.2012,-1.2068,-1.1963,-1.1941,-1.2112,-1.2113,-1.2113,-1.2114,-1.2114,-1.1971,-1.1954,-1.1952,-1.1916,-1.1885,-1.1905,-1.1861,-1.1884,-1.1905,-1.188,-1.1867,-1.1868,-1.1871,-1.1872,-1.1872,-1.1871,-1.1871,-1.1871,-1.187,-1.1857,-1.1857,-1.1819,-1.1804,-1.179,-1.1773,-1.1779,-1.1764,-1.1753,-1.1772,-1.1772,-1.1805,-1.1949,-1.1985,-1.1864,-1.1865,-1.1866,-1.1867,-1.1867,-1.1699,-1.1738,-1.1679,-1.1664,-1.1647,-1.1613,-1.1642,-1.1608,-1.1599,-1.1576,-1.1612,-1.1716,-1.1734,-1.1747,-1.1776,-1.1609,-1.1609,-1.1609,-1.1609,-1.1606,-1.1617,-1.1561,-1.1536,-1.1512,-1.1532,-1.146,-1.1462,-1.147,-1.1465,-1.1492,-1.1533,-1.1544,-1.1556,-1.1572,-1.16,-1.1392,-1.1392,-1.1392,-1.151,-1.1519,-1.1457,-1.1467,-1.1454,-1.1441,-1.1374,-1.134,-1.1356,-1.1383,-1.146,-1.1469,-1.1536,-1.1557,-1.1587,-1.1612,-1.1664,0,0]},{"header":{"parameterUnit":"m.s-1","parameterCategory":1,"la1":30.2992,"la2":30.254,"lo1":-89.0895,"lo2":-89.0443,"dy":0.0025,"dx":0.0025,"nx":19,"ny":19,"refTime":"2026-05-22T09:00:00:Z","depth":0,"parameterNumber":3,"parameterNumberName":"V-component_of_WINDS"},"data":[0,0,0,6.2818,6.2819,6.2809,6.2809,6.2836,6.2837,0,0,0,0,0,0,0,0,0,0,0,6.2844,6.2844,6.2818,6.2819,6.2809,6.2809,6.2836,6.2837,0,0,0,0,0,0,0,0,0,0,0,6.2843,6.2844,6.2845,6.2819,6.2809,6.2809,6.2836,6.2829,0,0,0,0,0,0,0,0,0,0,6.2832,6.2877,6.2844,6.2845,6.2819,6.2809,6.2809,6.2828,6.283,6.2857,0,6.2885,0,6.2861,6.2841,6.2841,0,0,0,6.2803,6.2876,6.2853,6.2846,6.2819,6.2809,6.2809,6.2829,6.283,6.2859,6.2885,6.2885,6.2862,6.2841,6.2841,6.3048,6.305,0,0,6.2803,6.2854,6.2852,6.2855,6.2857,6.2809,6.2809,6.2829,6.2862,6.2885,6.2885,6.2862,6.2842,6.2842,6.3046,6.3048,0,0,0,6.2816,6.2856,6.2831,6.2855,6.285,6.281,6.2809,6.2861,6.2849,6.2885,6.2863,6.2842,6.2843,6.3044,6.3047,6.3183,0,0,0,6.2815,6.2862,6.2832,6.2863,6.285,6.2855,6.2841,6.2847,6.2848,6.2863,6.2842,6.2843,6.3042,6.3046,6.3175,6.3239,0,0,0,6.2837,6.2865,6.2871,6.2866,6.2864,6.2853,6.2842,6.2846,6.2835,6.2841,6.2843,6.3041,6.3045,6.3167,6.3227,6.3309,0,0,0,6.2875,6.2991,6.2874,6.2995,6.2864,6.2937,6.2841,6.2893,6.2914,6.2842,6.3043,6.3047,6.3165,6.322,6.3302,6.3389,6.3429,0,0,6.3051,6.3014,6.3082,6.2976,6.3083,6.2934,6.3061,6.3032,6.2986,6.3031,6.3035,6.3177,6.3226,6.3308,6.3635,6.3667,0,0,0,6.3155,6.3205,6.3221,6.3243,6.3223,6.3212,6.3158,6.3148,6.3183,6.3019,6.3226,6.3254,6.33,6.3339,6.3367,6.3404,6.3067,6.3066,6.3066,6.3479,6.3413,6.3521,6.3454,6.3477,6.342,6.3433,6.3409,6.3337,6.3387,6.3401,6.3607,6.3655,6.3675,6.3714,6.3439,6.344,6.344,6.3441,6.3732,6.3792,6.3692,6.3761,6.3691,6.3749,6.37,6.3646,6.3691,6.3591,6.3628,6.3527,6.3713,6.3744,6.345,6.3449,6.3447,6.3446,6.3446,6.3938,6.3955,6.3939,6.3964,6.3992,6.392,6.3968,6.3902,6.3841,6.3878,6.3886,6.3884,6.3875,6.3886,6.3887,6.3887,6.3888,6.3889,6.3889,6.4159,6.4136,6.4183,6.4172,6.4178,6.4178,6.4122,6.4126,6.4115,6.4064,6.4064,6.3988,6.3742,6.3683,6.39,6.3898,6.3897,6.3896,6.3895,6.4443,6.4368,6.4441,6.4447,6.4429,6.4462,6.4377,6.4392,6.4386,6.4412,6.4328,6.4156,6.4115,6.4092,6.4043,6.434,6.434,6.434,6.434,6.4618,6.459,6.4651,6.4665,6.4671,6.4602,6.4689,6.4648,6.4593,6.4586,6.4533,6.4462,6.4441,6.4412,6.4383,6.4336,6.4701,6.4701,6.4702,6.479,6.4759,6.4846,6.479,6.4771,6.4757,6.4837,6.4859,6.4782,6.4715,6.458,6.4565,6.4448,6.4413,6.4345,6.4301,6.4213,0,0]}]]